Location: ???????
(60.4260°N, 46.9069°E)
Time: 05:52:42
(UTC+00:00)

USA 267 - Pass Details

Date: 30 March 2020
Orbit: 1101 x 1107 km, 123.0° (Epoch: 05 April)

Event Time Altitude Azimuth Distance (km) Brightness Sun altitude
Rises 01:13:33 0° 82° (E) 3,924 7.9 -8.9°
Reaches altitude 10° 01:16:05 10° 86° (E) 2,965 6.9 -8.7°
Maximum altitude 01:22:35 63° 167° (SSE) 1,218 3.5 -7.9°
Drops below altitude 10° 01:29:04 10° 249° (WSW) 2,960 4.8 -7.2°
Enters shadow 01:29:26 - 249° (WSW) 3,099 4.9 -7.1°
